• In Austria
  • List of Countries
  • For 7 days
  • Water Temperature
  • Satellite Maps
  • Weather Map
  • News
  • Weather Widgets
  • user-avatar
    Login

    Hourly Weather Zaharkino

    Today, 23 October, Tuesday

    Time Temperature Precipitation Wind Pressure Humidity
    00:00 +5°C° 0.7 mm 4 mps 735 mmHg 87%
    01:00 +5°C° 0.7 mm 4 mps 735 mmHg 88%
    02:00 +5°C° 0.7 mm 4 mps 734 mmHg 89%
    03:00 +5°C° 0.5 mm 3 mps 734 mmHg 89%
    04:00 +5°C° 0.5 mm 3 mps 734 mmHg 89%
    05:00 +5°C° 0.5 mm 3 mps 733 mmHg 89%
    06:00 +4°C° 0 mm 3 mps 733 mmHg 88%
    07:00 +4°C° 0 mm 3 mps 733 mmHg 86%
    08:00 +4°C° 0 mm 3 mps 733 mmHg 85%
    09:00 +5°C° 0 mm 2 mps 733 mmHg 82%
    10:00 +6°C° 0 mm 2 mps 733 mmHg 78%
    11:00 +6°C° 0 mm 2 mps 732 mmHg 74%
    12:00 +6°C° 0 mm 2 mps 732 mmHg 72%
    13:00 +6°C° 0 mm 2 mps 731 mmHg 70%
    14:00 +7°C° 0 mm 2 mps 730 mmHg 68%
    15:00 +6°C° 0 mm 2 mps 730 mmHg 73%
    16:00 +5°C° 0 mm 2 mps 729 mmHg 77%
    17:00 +4°C° 0 mm 2 mps 728 mmHg 82%
    18:00 +4°C° 0 mm 2 mps 727 mmHg 82%
    19:00 +4°C° 0 mm 2 mps 727 mmHg 82%
    20:00 +4°C° 0 mm 2 mps 726 mmHg 83%
    21:00 +4°C° 0 mm 2 mps 725 mmHg 83%
    22:00 +3°C° 0 mm 3 mps 724 mmHg 84%
    23:00 +3°C° 0 mm 3 mps 723 mmHg 85%

    Tomorrow, 24 October, Wednesday

    Time Temperature Precipitation Wind Pressure Humidity
    00:00 +2°C° 0 mm 3 mps 722 mmHg 85%
    01:00 +2°C° 0 mm 3 mps 722 mmHg 85%
    02:00 +2°C° 0 mm 3 mps 721 mmHg 86%
    03:00 +1°C° 0.1 mm 4 mps 720 mmHg 85%
    04:00 +1°C° 0.1 mm 4 mps 719 mmHg 85%
    05:00 +1°C° 0.1 mm 4 mps 718 mmHg 85%
    06:00 +1°C° 0.3 mm 4 mps 718 mmHg 85%
    07:00 +1°C° 0.3 mm 4 mps 718 mmHg 85%
    08:00 +1°C° 0.3 mm 4 mps 717 mmHg 85%
    09:00 +3°C° 0.2 mm 4 mps 717 mmHg 84%
    10:00 +3°C° 0.2 mm 4 mps 717 mmHg 83%
    11:00 +4°C° 0.2 mm 4 mps 717 mmHg 82%
    12:00 +4°C° 0.3 mm 4 mps 717 mmHg 83%
    13:00 +4°C° 0.3 mm 3 mps 717 mmHg 83%
    14:00 +4°C° 0.3 mm 3 mps 717 mmHg 84%
    15:00 +4°C° 0.4 mm 3 mps 718 mmHg 85%
    16:00 +3°C° 0.4 mm 3 mps 718 mmHg 87%
    17:00 +3°C° 0.4 mm 3 mps 718 mmHg 88%
    18:00 +3°C° 0.4 mm 3 mps 718 mmHg 89%
    19:00 +3°C° 0.4 mm 3 mps 719 mmHg 90%
    20:00 +3°C° 0.4 mm 3 mps 719 mmHg 90%
    21:00 +3°C° 0.3 mm 3 mps 719 mmHg 91%
    22:00 +3°C° 0.3 mm 3 mps 719 mmHg 91%
    23:00 +3°C° 0.3 mm 3 mps 720 mmHg 92%

    Day after tomorrow, 25 October, Thursday

    Time Temperature Precipitation Wind Pressure Humidity
    00:00 +2°C° 0.2 mm 3 mps 720 mmHg 91%
    01:00 +2°C° 0.2 mm 3 mps 720 mmHg 91%
    02:00 +2°C° 0.2 mm 3 mps 720 mmHg 90%
    03:00 +1°C° 0.1 mm 4 mps 720 mmHg 89%
    04:00 +1°C° 0.1 mm 4 mps 720 mmHg 88%
    05:00 0°C° 0.1 mm 4 mps 720 mmHg 87%
    06:00 0°C° 0 mm 5 mps 720 mmHg 86%
    07:00 0°C° 0 mm 5 mps 720 mmHg 85%
    08:00 0°C° 0 mm 5 mps 720 mmHg 84%
    09:00 0°C° 0 mm 5 mps 719 mmHg 83%
    10:00 -1°C° 0 mm 6 mps 719 mmHg 82%
    11:00 -1°C° 0 mm 6 mps 719 mmHg 80%
    12:00 -1°C° 0 mm 6 mps 718 mmHg 80%
    13:00 -1°C° 0 mm 6 mps 718 mmHg 79%
    14:00 -1°C° 0 mm 6 mps 718 mmHg 78%
    15:00 -1°C° 0.1 mm 6 mps 718 mmHg 78%
    16:00 -1°C° 0.1 mm 6 mps 718 mmHg 77%
    17:00 -1°C° 0.1 mm 6 mps 718 mmHg 77%
    18:00 -1°C° 0.1 mm 6 mps 718 mmHg 77%
    19:00 -1°C° 0.1 mm 6 mps 718 mmHg 77%
    20:00 -1°C° 0.1 mm 6 mps 719 mmHg 77%
    21:00 -1°C° 0 mm 6 mps 719 mmHg 77%
    22:00 -1°C° 0 mm 6 mps 720 mmHg 77%
    23:00 -2°C° 0 mm 6 mps 720 mmHg 78%

    26 October, Friday

    Time Temperature Precipitation Wind Pressure Humidity
    00:00 -2°C° 0 mm 6 mps 721 mmHg 79%
    01:00 -1°C° 0 mm 5 mps 721 mmHg 80%
    02:00 -1°C° 0 mm 5 mps 722 mmHg 81%
    03:00 -1°C° 0 mm 5 mps 723 mmHg 82%
    04:00 -1°C° 0 mm 5 mps 723 mmHg 84%
    05:00 -1°C° 0 mm 4 mps 724 mmHg 85%
    06:00 -1°C° 0 mm 4 mps 724 mmHg 85%
    07:00 -1°C° 0 mm 4 mps 725 mmHg 85%
    08:00 -1°C° 0 mm 4 mps 725 mmHg 84%
    09:00 0°C° 0 mm 4 mps 725 mmHg 82%
    10:00 0°C° 0 mm 4 mps 726 mmHg 80%
    11:00 +1°C° 0 mm 4 mps 726 mmHg 79%
    12:00 +1°C° 0 mm 4 mps 727 mmHg 79%
    13:00 +1°C° 0 mm 4 mps 727 mmHg 79%
    14:00 +1°C° 0 mm 4 mps 727 mmHg 79%
    15:00 +1°C° 0.1 mm 4 mps 728 mmHg 80%
    16:00 +1°C° 0.1 mm 4 mps 728 mmHg 81%
    17:00 +2°C° 0.1 mm 3 mps 729 mmHg 83%
    18:00 +1°C° 0 mm 3 mps 729 mmHg 84%
    19:00 +1°C° 0 mm 3 mps 729 mmHg 85%
    20:00 +1°C° 0 mm 3 mps 730 mmHg 86%
    21:00 0°C° 0 mm 3 mps 730 mmHg 88%
    22:00 0°C° 0 mm 3 mps 730 mmHg 89%
    23:00 0°C° 0 mm 3 mps 731 mmHg 90%

    27 October, Saturday

    Time Temperature Precipitation Wind Pressure Humidity
    00:00 -1°C° 0 mm 3 mps 731 mmHg 91%
    01:00 -1°C° 0 mm 3 mps 732 mmHg 91%
    02:00 -1°C° 0 mm 3 mps 732 mmHg 92%
    03:00 -1°C° 0 mm 3 mps 733 mmHg 93%
    04:00 -2°C° 0 mm 3 mps 733 mmHg 93%
    05:00 -2°C° 0 mm 2 mps 734 mmHg 94%
    06:00 -2°C° 0 mm 2 mps 734 mmHg 94%
    07:00 -1°C° 0 mm 2 mps 734 mmHg 93%
    08:00 -1°C° 0 mm 2 mps 735 mmHg 92%
    09:00 0°C° 0 mm 3 mps 734 mmHg 89%
    10:00 +1°C° 0 mm 3 mps 734 mmHg 85%
    11:00 +2°C° 0 mm 3 mps 734 mmHg 82%
    12:00 +2°C° 0.1 mm 3 mps 734 mmHg 81%
    13:00 +3°C° 0.1 mm 3 mps 734 mmHg 80%
    14:00 +3°C° 0.1 mm 4 mps 733 mmHg 79%
    15:00 +3°C° 0.4 mm 4 mps 733 mmHg 81%
    16:00 +2°C° 0.4 mm 5 mps 732 mmHg 83%
    17:00 +2°C° 0.4 mm 5 mps 732 mmHg 85%
    18:00 +3°C° 0.3 mm 5 mps 731 mmHg 85%
    19:00 +3°C° 0.3 mm 5 mps 731 mmHg 86%
    20:00 +5°C° 0.3 mm 5 mps 731 mmHg 87%
    21:00 +5°C° 0.1 mm 5 mps 731 mmHg 87%
    22:00 +5°C° 0.1 mm 5 mps 731 mmHg 87%
    23:00 +5°C° 0.1 mm 4 mps 731 mmHg 87%

    28 October, Sunday

    Time Temperature Precipitation Wind Pressure Humidity
    00:00 +5°C° 0.1 mm 4 mps 731 mmHg 88%
    01:00 +4°C° 0.1 mm 3 mps 732 mmHg 90%
    02:00 +4°C° 0.1 mm 3 mps 732 mmHg 91%
    03:00 +4°C° 0 mm 3 mps 732 mmHg 92%
    04:00 +5°C° 0 mm 2 mps 732 mmHg 93%
    05:00 +5°C° 0 mm 2 mps 732 mmHg 94%
    06:00 +5°C° 0.2 mm 2 mps 732 mmHg 94%
    07:00 +5°C° 0.2 mm 2 mps 732 mmHg 95%
    08:00 +6°C° 0.2 mm 1 mps 732 mmHg 95%
    09:00 +6°C° 0.2 mm 1 mps 732 mmHg 94%
    10:00 +7°C° 0.2 mm 1 mps 732 mmHg 93%
    11:00 +7°C° 0.2 mm 1 mps 732 mmHg 92%
    12:00 +7°C° 0.6 mm 1 mps 732 mmHg 93%
    13:00 +7°C° 0.6 mm 1 mps 732 mmHg 94%
    14:00 +7°C° 0.6 mm 1 mps 732 mmHg 96%
    15:00 +6°C° 1.4 mm 1 mps 731 mmHg 96%
    16:00 +5°C° 1.4 mm 2 mps 731 mmHg 96%
    17:00 +5°C° 1.4 mm 2 mps 730 mmHg 97%
    18:00 +5°C° 1.1 mm 2 mps 730 mmHg 97%
    19:00 +5°C° 1.1 mm 2 mps 729 mmHg 96%
    20:00 +5°C° 1.1 mm 2 mps 729 mmHg 96%
    21:00 +5°C° 0.1 mm 3 mps 728 mmHg 95%
    22:00 +7°C° 0.1 mm 3 mps 728 mmHg 95%
    23:00 +6°C° 0.1 mm 4 mps 727 mmHg 94%

    29 October, Monday

    Time Temperature Precipitation Wind Pressure Humidity
    00:00 +6°C° 0.1 mm 5 mps 728 mmHg 90%
    01:00 +5°C° 0.1 mm 6 mps 728 mmHg 85%
    02:00 +5°C° 0.1 mm 7 mps 728 mmHg 80%
    03:00 +5°C° 0 mm 7 mps 730 mmHg 79%
    04:00 +4°C° 0 mm 7 mps 731 mmHg 78%
    05:00 +3°C° 0 mm 6 mps 732 mmHg 77%
    06:00 +3°C° 0 mm 6 mps 733 mmHg 78%
    07:00 +3°C° 0 mm 5 mps 734 mmHg 79%
    08:00 +3°C° 0 mm 5 mps 736 mmHg 80%
    09:00 +3°C° 0 mm 5 mps 737 mmHg 78%
    10:00 +3°C° 0 mm 5 mps 738 mmHg 77%
    11:00 +5°C° 0 mm 5 mps 739 mmHg 75%
    12:00 +5°C° 0 mm 4 mps 739 mmHg 74%
    13:00 +5°C° 0 mm 4 mps 740 mmHg 73%
    14:00 +5°C° 0 mm 4 mps 741 mmHg 72%
    15:00 +4°C° 0 mm 3 mps 741 mmHg 75%
    16:00 +4°C° 0 mm 3 mps 742 mmHg 78%
    17:00 +3°C° 0 mm 3 mps 742 mmHg 81%
    18:00 +4°C° 0 mm 2 mps 743 mmHg 84%
    19:00 +3°C° 0 mm 2 mps 743 mmHg 86%
    20:00 +3°C° 0 mm 2 mps 744 mmHg 89%
    21:00 +2°C° 0 mm 2 mps 744 mmHg 90%
    22:00 +2°C° 0 mm 2 mps 745 mmHg 92%
    23:00 +3°C° 0 mm 1 mps 745 mmHg 93%
    Show more